Theta_e
304 304 304 304 304 304 304 304 304 304 304 304 304 303 303 303 303 302 302 302 302 302 302 302 302 301 301 301 301 301 301 301 301 301 300 300 300 299 299 299 299 298
303 303 303 303 303 303 303 303 304 304 304 304 303 304 303 303 303 303 302 302 302 302 302 302 302 302 302 301 301 301 301 301 301 301 300 300 299 299 299 299 299 299
301 301 301 302 302 302 302 302 303 303 303 303 303 303 303 303 303 303 303 302 302 302 302 302 302 302 302 302 301 301 301 301 301 301 300 300 299 299 299 299 298 298
300 300 300 301 301 301 301 301 302 302 302 302 302 302 303 303 303 303 303 303 302 302 302 302 302 302 302 301 301 301 301 301 301 301 300 300 300 299 299 298 298 298
299 300 300 300 300 300 300 300 300 301 301 301 301 301 301 302 302 302 302 302 302 302 302 302 302 302 302 301 301 301 301 301 301 301 300 300 300 299 299 298 298 297
299 299 299 299 299 299 299 299 299 299 299 299 299 299 300 300 300 301 301 301 301 302 302 302 302 302 301 301 301 301 301 301 301 300 300 300 300 300 299 298 298 297
299 299 299 299 299 299 299 298 298 298 298 298 298 298 298 298 299 299 299 299 300 300 300 300 300 301 301 301 301 300 300 300 300 300 300 300 300 299 299 299 298 298
298 298 298 298 298 298 298 298 298 298 298 298 297 297 297 297 298 298 298 298 298 298 298 298 299 299 299 300 300 300 300 300 300 300 299 299 299 299 299 299 298 298
298 298 297 298 297 297 297 297 297 297 297 297 297 297 297 297 297 297 297 297 297 297 297 297 297 297 297 298 298 298 299 299 299 299 299 299 299 299 299 298 298 297
298 297 297 297 296 296 296 296 296 296 296 296 296 296 296 296 296 296 296 296 296 296 296 296 296 296 296 296 297 297 297 298 298 298 298 298 298 298 298 298 298 297
296 296 295 295 295 294 295 295 295 295 295 295 295 295 295 295 295 295 295 295 295 295 295 295 295 295 295 295 295 296 296 296 297 297 297 297 297 298 298 298 297 297
293 293 293 293 293 293 293 293 293 293 293 292 292 292 292 292 293 293 293 293 293 293 293 293 294 294 294 294 294 294 294 295 295 295 295 296 296 296 297 297 297 297
291 291 292 291 291 291 291 291 291 291 291 290 290 290 290 291 291 291 291 292 292 292 292 292 293 293 293 293 293 293 294 294 294 294 294 295 295 295 296 296 296 296
290 290 290 290 290 290 290 290 290 290 289 289 288 289 289 290 290 290 290 290 290 290 291 291 292 292 292 292 292 293 293 293 293 293 294 294 294 294 295 295 295 295
289 289 290 290 289 289 289 289 289 289 288 287 287 287 288 288 289 289 289 289 289 289 289 290 290 291 291 291 291 292 292 292 292 292 292 293 293 294 294 294 294 294
287 288 289 289 289 288 288 288 289 288 287 285 285 286 286 287 287 287 287 288 288 288 288 289 289 289 289 290 290 290 290 289 289 289 290 291 292 293 293 293 293 293
285 286 287 288 288 287 287 287 288 288 287 285 284 284 285 286 286 286 286 286 286 287 287 287 288 288 288 288 289 289 288 286 286 287 288 290 291 291 292 292 292 292
283 283 285 286 286 285 284 285 287 287 286 284 283 283 283 284 284 284 284 284 284 284 285 285 285 285 285 287 288 287 285 284 284 285 286 288 289 290 290 291 291 291
281 281 282 283 283 283 282 283 284 286 286 284 282 282 282 283 283 282 282 282 282 282 282 282 283 283 284 286 287 285 284 283 283 283 284 285 286 286 287 288 289 289
280 280 281 282 281 281 280 281 282 283 284 283 282 281 281 282 282 281 281 281 280 281 281 281 281 281 283 284 284 283 283 283 282 282 282 282 282 283 284 286 287 288
279 279 279 280 280 279 279 279 280 281 282 282 281 281 281 281 281 280 280 280 280 280 280 280 279 280 281 282 282 282 282 282 281 281 281 281 280 281 282 284 285 287
278 278 278 279 279 278 278 278 279 280 280 280 280 280 280 280 280 279 279 279 279 279 279 279 278 279 279 280 281 281 281 280 280 280 280 280 280 280 281 283 285 286
277 276 277 278 277 277 277 277 277 278 278 278 279 279 279 279 279 278 278 278 278 278 278 278 277 277 278 279 279 280 280 279 279 279 279 280 280 281 282 283 283 284
276 275 276 276 276 276 276 276 276 276 277 277 277 277 278 278 277 277 277 277 277 277 277 277 277 276 277 278 278 279 278 278 278 279 280 280 280 280 280 280 280 280
274 274 275 275 275 275 275 275 275 275 275 275 276 276 276 276 275 275 275 275 276 276 275 276 276 275 276 277 277 277 277 278 279 279 279 279 278 278 278 278 278 278
273 273 274 274 274 274 274 274 274 274 274 274 275 275 274 274 274 274 274 274 274 275 275 275 275 274 275 276 276 276 277 278 278 278 277 277 277 277 277 277 277 277
Wind_Speed
14 15 16 18 19 20 21 22 23 24 24 25 25 26 26 25 25 24 23 22 21 21 21 21 21 22 23 23 23 24 25 25 26 25 25 25 26 26 27 28 28 28
18 18 18 18 19 19 20 21 22 22 23 24 24 25 25 25 25 25 24 24 24 24 24 23 23 23 24 24 25 26 27 27 28 28 27 28 28 28 29 29 29 30
21 21 21 21 21 21 20 20 21 21 22 22 22 23 24 24 24 24 25 25 25 25 26 26 26 26 26 26 26 27 28 29 30 29 29 31 31 31 31 31 32 32
23 23 23 23 23 23 23 23 23 23 23 23 22 22 22 23 23 23 23 24 24 25 25 26 26 27 27 27 27 28 29 30 31 30 31 32 32 32 33 33 33 34
24 24 24 25 25 25 26 27 27 26 26 25 25 24 24 24 24 23 23 23 24 24 24 25 25 26 26 26 27 28 29 30 31 30 31 33 33 33 34 34 33 35
25 26 26 27 27 28 28 29 29 28 28 28 28 27 26 25 25 25 25 25 24 24 25 25 25 26 26 26 27 27 28 28 30 30 30 33 33 33 34 33 33 35
26 26 27 27 27 28 28 28 28 28 28 28 28 28 28 27 27 27 26 26 26 26 26 26 26 27 26 27 27 27 27 28 28 28 29 31 32 33 33 33 33 34
27 27 27 27 27 28 28 28 27 27 26 26 27 28 27 27 27 27 27 27 27 27 27 27 28 28 28 27 26 27 27 28 28 28 28 30 31 32 33 32 32 33
27 27 27 28 28 29 29 28 28 27 26 27 27 27 26 26 26 26 26 26 27 27 28 29 29 29 29 28 27 27 27 28 28 28 28 29 30 31 32 32 31 31
28 28 28 29 29 30 30 29 29 28 28 28 28 29 28 28 27 26 26 27 27 28 28 29 29 30 29 28 28 28 28 28 29 28 28 28 29 30 31 31 30 30
28 28 28 29 29 29 29 29 29 29 30 30 30 31 31 31 31 30 30 30 30 30 30 30 29 29 29 29 29 29 29 29 29 29 29 29 29 30 30 31 30 30
28 28 28 28 28 28 28 28 29 29 30 30 31 31 32 32 33 33 32 32 32 32 32 31 30 29 29 29 30 30 29 29 29 29 29 29 29 29 29 30 30 30
29 29 29 29 29 29 29 29 29 30 30 30 31 31 32 32 33 33 32 32 32 33 33 32 31 31 31 32 32 32 31 30 30 30 30 30 30 30 29 29 29 29
29 29 29 30 30 30 31 31 31 31 31 31 32 32 32 32 32 32 32 32 32 32 32 32 31 31 33 35 35 34 34 32 31 31 31 31 30 30 30 29 29 29
30 30 30 31 31 32 32 32 31 31 32 32 33 33 32 32 32 32 32 33 33 33 33 32 30 31 34 35 35 35 35 34 33 33 32 31 31 32 31 31 30 30
31 31 31 32 32 32 32 32 31 31 32 33 34 33 32 32 32 33 33 33 34 34 34 33 31 31 33 34 33 33 34 33 34 33 32 31 31 31 32 32 32 31
32 32 32 32 32 32 32 32 31 30 31 33 34 34 33 32 32 32 32 32 32 33 33 33 32 32 34 35 33 32 33 34 33 32 31 30 29 30 30 31 32 32
33 32 32 32 32 32 32 32 31 30 31 33 35 34 32 31 31 32 32 31 31 31 31 31 31 33 35 35 33 32 35 36 33 31 30 30 30 30 30 30 31 32
32 31 31 31 31 31 32 32 32 31 31 32 33 33 32 31 31 31 32 32 32 32 31 31 31 33 35 34 33 34 36 36 33 30 30 30 30 31 32 31 31 31
30 30 30 29 30 31 32 32 32 31 30 31 32 33 32 31 31 32 33 33 33 33 32 32 32 34 35 35 35 36 36 35 34 31 30 30 31 31 32 31 31 31
29 29 28 28 28 30 31 31 31 31 30 30 32 32 31 30 30 32 33 34 35 35 34 34 34 35 35 36 36 37 38 38 37 35 34 33 32 30 30 30 30 29
27 28 27 26 26 28 29 29 30 29 29 29 30 30 30 30 31 32 34 35 35 34 35 35 36 36 36 37 37 38 39 41 41 40 39 37 35 32 30 28 27 27
26 27 26 25 25 26 27 28 27 27 27 28 28 29 29 29 31 32 33 34 34 33 34 34 35 35 36 37 36 37 40 43 43 42 41 40 37 34 30 28 27 28
26 27 26 24 25 26 27 27 27 26 26 27 27 27 28 29 31 32 32 33 33 33 34 34 34 34 34 35 35 36 39 42 41 41 40 38 37 35 33 33 33 33
26 26 26 24 24 26 26 27 28 27 27 27 26 27 28 29 30 31 32 32 32 32 33 33 34 36 35 33 34 37 39 39 38 37 36 36 38 39 40 39 38 36
26 26 25 23 23 25 26 26 27 26 27 28 27 27 29 30 31 31 33 33 32 32 33 33 35 37 35 33 36 38 37 35 34 34 36 40 43 42 41 40 39 40
Wind_Direction
357 349 342 336 331 327 325 324 322 320 318 319 318 317 318 318 317 314 310 307 302 297 295 292 290 289 288 287 286 285 285 285 285 285 284 282 282 282 282 282 281 280
12 6 359 353 347 344 341 336 332 329 326 326 324 323 324 323 321 318 314 311 307 303 300 297 294 291 289 288 286 283 282 282 283 283 282 280 279 277 277 278 279 278
16 13 9 5 0 357 354 350 347 343 339 337 335 333 331 329 328 325 321 317 313 310 307 303 300 297 294 292 289 285 283 282 283 284 282 280 279 277 275 275 274 274
20 17 15 13 10 8 7 4 2 360 355 351 350 346 341 338 335 332 329 326 321 318 315 311 307 304 301 298 294 289 286 285 285 285 282 281 281 278 277 276 273 272
24 23 22 21 19 17 16 14 11 8 4 1 359 357 352 348 345 341 338 336 331 327 324 320 316 312 308 304 299 294 292 290 289 287 283 282 283 282 280 278 275 274
29 28 27 26 25 23 21 20 17 13 9 6 5 4 0 356 353 350 347 343 340 336 332 329 325 321 317 313 306 301 298 296 295 292 286 285 286 285 283 280 277 276
33 31 29 28 26 25 23 20 18 16 12 8 7 7 5 2 359 358 355 351 347 344 341 338 334 331 328 323 316 311 307 304 301 296 290 289 289 287 285 282 279 278
34 31 28 25 24 22 20 18 16 14 10 7 7 7 7 6 4 2 1 358 355 352 350 347 343 341 338 333 326 321 317 313 309 303 297 294 291 289 288 286 281 279
32 29 26 24 23 21 19 18 16 14 13 10 9 9 9 10 8 6 4 3 1 359 357 355 352 349 346 342 336 330 325 321 317 310 304 299 295 293 292 289 284 280
31 29 28 27 26 24 22 21 20 19 18 15 13 13 12 12 12 10 8 6 5 3 2 1 359 357 355 352 347 341 334 329 325 319 312 307 302 299 297 294 288 283
33 32 31 30 29 27 25 25 23 22 22 20 18 17 16 15 15 14 13 11 9 7 5 5 4 3 3 360 356 351 344 338 333 327 321 316 311 306 304 299 294 289
32 30 30 29 29 28 27 27 26 25 25 24 22 20 19 18 17 16 15 13 11 10 8 7 7 7 6 3 359 355 351 346 341 335 330 325 320 315 312 307 302 297
29 27 26 26 25 25 25 25 25 25 24 23 22 21 20 18 16 15 14 13 11 10 9 8 8 8 6 3 360 357 354 350 346 342 337 332 328 323 319 315 310 305
28 26 25 24 23 22 22 22 22 21 21 20 19 19 18 16 15 13 12 11 10 9 9 8 8 8 5 2 360 357 355 352 348 345 340 336 334 330 326 323 319 314
27 25 24 23 22 21 21 20 19 19 18 17 16 16 15 13 13 12 10 9 8 7 7 7 7 7 4 2 360 358 356 353 350 346 342 338 335 333 331 329 325 322
25 24 23 21 20 19 18 17 17 17 16 15 14 14 13 12 11 10 10 8 5 4 3 3 3 3 1 0 360 359 357 354 349 345 342 339 335 333 331 330 328 326
25 23 21 19 18 16 15 14 14 14 13 12 11 10 10 10 9 8 8 6 4 2 0 359 357 357 357 356 357 357 356 352 347 342 339 338 334 331 328 327 326 325
24 23 21 19 16 13 12 12 11 11 10 8 7 7 6 6 6 5 4 3 1 360 357 355 353 351 352 352 352 353 351 348 345 342 339 336 334 331 328 325 324 322
24 22 20 18 15 12 10 11 10 9 7 4 3 3 2 2 2 1 0 359 358 356 354 351 349 348 349 349 347 347 347 346 343 341 339 336 333 330 326 323 322 321
21 20 19 16 12 10 9 9 8 6 3 1 359 359 359 359 357 356 356 355 353 351 349 348 347 346 346 345 344 343 344 343 341 338 336 333 330 327 323 321 320 320
18 17 16 13 9 8 7 7 5 3 0 357 356 356 356 354 353 352 351 350 349 348 346 344 344 344 344 343 342 341 341 341 339 335 332 330 328 326 323 320 319 318
17 14 13 10 7 5 5 4 2 360 357 354 353 352 352 351 350 349 347 345 345 345 343 341 341 342 343 341 340 341 340 339 337 333 330 328 327 327 326 324 323 324
15 12 10 8 5 4 2 0 358 357 354 352 350 349 349 348 345 344 343 342 342 341 340 338 337 340 341 339 339 340 339 337 334 331 328 327 328 329 330 329 327 327
12 10 8 5 3 1 359 356 355 354 351 350 349 346 345 344 342 340 340 340 339 339 338 336 334 336 338 337 337 338 337 333 330 328 327 327 328 328 327 326 323 322
9 7 6 4 1 358 356 354 352 350 348 347 346 344 342 340 340 339 338 339 338 336 336 336 334 334 336 336 336 336 334 331 330 328 328 328 328 325 323 323 322 322
5 4 4 2 358 355 354 351 350 347 346 345 344 342 341 339 340 340 337 337 338 336 336 336 334 333 335 336 335 333 332 334 335 334 332 328 326 323 322 323 323 322